Regional Weather Roundup
Issued by NWS Austin/San Antonio, TX

Home | Current Version | Previous Version | Text Only | Print | Product List | Glossary On
Versions: 1 2 3 4 5 6 7 8 9 10 11 12 13 14 15 16 17 18 19 20 21 22 23 24 25 26 27 28 29 30 31 32 33 34 35 36 37 38 39 40 41 42 43 44 45 46 47 48 49 50
000
ASUS44 KEWX 261012
RWREWX
SOUTH TEXAS REGIONAL WEATHER ROUNDUP
NATIONAL WEATHER SERVICE AUSTIN/SAN ANTONIO TX
500 AM CDT FRI MAY 26 2017

NOTE: "FAIR" INDICATED FEW OR NO CLOUDS BELOW 12,000 FEET WITH NO
SIGNIFICANT WEATHER AND/OR OBSTRUCTIONS TO VISIBILITY.

* - THESE STATIONS ARE NOT NWS OR FAA STATIONS...AND ARE NOT SUBJECT
    TO NWS AND FAA QUALITY CONTROL.

TXZ171-172-183>190-261100-
TEXAS HILL COUNTRY AND EDWARDS PLATEAU

CITY           SKY/WX    TMP DP  RH WIND       PRES   REMARKS
JUNCTION       CLOUDY    76  71  85 CALM      29.82R
*LLANO         MOCLDY    75  72  88 CALM      29.83R
BURNET         MOCLDY    73  71  93 S7        29.82R
*HORSESHOE BAY NOT AVBL
*KERRVILLE     CLOUDY    74  72  92 S10G17    29.82R
*FREDERICKSBRG CLOUDY    74  69  83 S7        29.82R
*ROCKSPRINGS   CLOUDY    73  72  94 S9        29.85R FOG
*BOERNE STAGE  CLOUDY    72  70  94 S7G16     29.82R
*CASTROVILLE   CLOUDY    76  71  82 SE8       29.82R
HONDO          CLOUDY    77  73  87 SE8       29.80R
*UVALDE        CLOUDY    73  72  96 E7        29.78S
DEL RIO        CLOUDY    75  72  90 E9        29.73R
LAUGHLIN AFB   CLOUDY    75  73  94 SE10      29.74R
CARRIZO SPRGS  CLOUDY    77  72  83 SE9       29.74S
*EAGLE PASS    NOT AVBL
$$

TXZ173-191>194-202-209-217>225-228-261100-
CENTRAL AND SOUTH CENTRAL TEXAS

CITY           SKY/WX    TMP DP  RH WIND       PRES   REMARKS
GEORGETOWN     CLOUDY    77  68  73 S13       29.79R
AUSTIN/BERGSTM CLOUDY    78  72  81 S13       29.78S
AUSTIN/MABRY   CLOUDY    77  70  79 S7        29.80R
*AUSTIN/EXEC   CLOUDY    75  72  88 S12       29.80R
*LAGO VISTA    CLOUDY    76  71  84 S12G18    29.81R
SAN MARCOS     CLOUDY    75  72  88 S12       29.80R
NEW BRAUNFELS  CLOUDY    77  72  84 S10       29.78R
RANDOLPH AFB   CLOUDY    76  75  94 S12       29.80R
PT SAN ANTONIO CLOUDY    75  73  94 S9        29.78R
SAN ANTONIO    CLOUDY    76  71  85 S12       29.80R
STINSON FIELD  CLOUDY    78  72  81 S8        29.78R
*LA GRANGE     CLOUDY    79  73  82 S10       29.78S
*GIDDINGS      CLOUDY    76  70  80 S9G16     29.81R
*GONZALES      CLOUDY    78  74  87 S8        29.79S
$$

TXZ163>164-176>182-195>201-210>213-226-227-235-261100-
SOUTHEAST TEXAS

CITY           SKY/WX    TMP DP  RH WIND       PRES   REMARKS
COLLEGE STN    CLOUDY    76  71  85 S8        29.81R
*BRYAN         CLOUDY    75  71  87 S7        29.82R
*CALDWELL      NOT AVBL
*CROCKETT      CLOUDY    68  66  94 S6        29.85R
*BRENHAM       CLOUDY    78  72  80 S8        29.82R
HUNTSVILLE     CLOUDY    74  68  81 S8        29.82R
CONROE         CLOUDY    74  69  85 S12       29.83R
HOUSTON BUSH   PTCLDY    75  69  81 S6        29.84R
HOUSTON HOBBY  MOCLDY    74  71  91 S5        29.83R
*HOUSTON SW AP CLOUDY    71  69  92 CALM      29.84R
PEARLAND       MOCLDY    76  71  85 S6        29.85R
HOUSTON HOOKS  CLOUDY    75  70  84 S6        29.83R
ELLINGTON FLD  PTCLDY    75  70  83 S6        29.85R
SUGAR LAND     CLOUDY    76  72  87 S8        29.82R
*HOUSTON EXEC  CLOUDY    75  72  88 S8        29.83S FOG
*CLEVELAND MUN MOCLDY    67  66  96 CALM      29.86R
*WHARTON       CLOUDY    77  70  80 S9        29.83R
*COLUMBUS      CLOUDY    76  71  85 S8        29.82S
*EAGLE LAKE    CLOUDY    77  74  91 S10       29.81S
$$

TXZ214>216-236>238-261100-
THE UPPER TEXAS COAST

CITY           SKY/WX    TMP DP  RH WIND       PRES   REMARKS
*ORANGE        PTCLDY    75  70  85 S10       29.87R
PORT ARTHUR    PTCLDY    74  68  81 S12       29.85R
GALVESTON      MOCLDY    78  73  84 S20       29.85R
ANGLETON       CLOUDY    78  73  84 S14       29.83R
*BAY CITY      CLOUDY    78  73  83 S9        29.82S
PALACIOS       CLOUDY    78  72  81 S18G30    29.81R
$$

TXZ229>234-239>247-261100-
TEXAS COASTAL BEND AND RIO GRANDE PLAINS

CITY           SKY/WX    TMP DP  RH WIND       PRES   REMARKS
VICTORIA       CLOUDY    79  73  82 S12       29.80S
*BEEVILLE      CLOUDY    79  79 100 S14       29.79R
ROCKPORT       CLOUDY    80  73  79 S13G25    29.78R
*PORT ARANSAS  CLOUDY    79  74  86 S21G26    29.78S
*PORT LAVACA   CLOUDY    78  75  90 S12G22    29.81R
*INGLESIDE     CLOUDY    81  75  83 S17G23    29.77S
CORPUS CHRISTI CLOUDY    80  75  84 S15       29.77S
CORPUS NAS     CLOUDY    81  77  88 S18G26    29.77S
*ROBSTOWN      CLOUDY    80  74  82 S13       29.78R
ALICE          CLOUDY    79  73  82 S14G22    29.76R
KINGSVILLE NAS CLOUDY    80  76  87 S14       29.77R
COTULLA        CLOUDY    79  72  79 SE6       29.76R
*FAITH RANCH   CLOUDY    79  73  83 SE9G16    29.75R
LAREDO         CLOUDY    79  73  82 S12       29.75R
$$

TXZ248>255-261100-
DEEP SOUTH TEXAS

CITY           SKY/WX    TMP DP  RH WIND       PRES   REMARKS
BROWNSVILLE    PTCLDY    80  75  84 S15       29.79R
PORT ISABEL    PTCLDY    80  75  84 S15       29.78R
*SOUTH PADRE   NOT AVBL
HARLINGEN      MOCLDY    79  77  94 S16G25    29.77R
*HEBBRONVILLE  CLOUDY    78  72  81 S12G20    29.77R
MCALLEN        CLOUDY    82  75  79 S15G24    29.76S
*WESLACO       CLOUDY    79  74  85 S16       29.76S
FALFURRIAS     CLOUDY    79  74  83 S15       29.75S
EDINBURG       CLOUDY    82  73  74 S15G22    29.76S
*ZAPATA        CLOUDY    78  72  83 SE9       29.73R
$$

TXZ213>215-236>238-242>244-246-247-251-254-255-261100-
CMAN STATIONS

STATION/POSITION TIME  TEMP    WIND        PRES    WAVE
                       AIR SEA DIR/SP/G            HT/PER
                 (UTC) (F)     (DEG/KT/KT) (MB)    (FT/S)
SABINE PASS      0948   76 80  180/ 13/ 21 1012.4
SEA RIM ST PARK  1000   77     180/ 17/ 22 1011.5
NORTH JETTY/GLS  0942      78  160/ 17/ 23 1009.8
EAGLE POINT      0948   77 77  200/ 18/ 21 1010.0
MORGANS POINT    0948   76 78  190/  6/  9 1010.3
MISSION/ARANSAS  0900   80                 1009.0
PORT O`CONNOR    0948   79     170/ 23/ 27 1008.6
PORT ARANSAS     1000   79 79  160/ 24/ 26 1008.1
MALAQUITE BEACH  0948   80 80  150/ 23/ 26 1008.4
BAFFIN BAY       0948   80 79              1007.9
PORT ISABEL      0948   80 81  150/ 17/ 23 1008.2
$$




USA.gov is the U.S. government's official web portal to all federal, state and local government web resources and services.